Flight Track Log - Related Links

Times and Time Zones

All times are in EDT time to prevent confusion due to time zone crossing. See the JBU1329 flight status page for this flight to view local times or setup timezone preferences in your user account.

Time Position Orientation Groundspeed Altitude Reporting Facility
EDT Latitude Longitude Course Direction KTS km/h feet Rate Location/Type
Sat 08:17:25 42.3500 -71.0167 228° Southwest 156 290 600  Level KA90
Sat 08:18:49 42.3000 -70.9333 129° Southeast 258 478 3.500 2.218 Climbing KA90
Sat 08:19:24 42.3167 -70.8678 71° East 292 541 5.000 2.211 Climbing Boston Center
Sat 08:20:24 42.3297 -70.7692 80° East 326 604 7.000 2.700 Climbing Boston Center
Sat 08:21:00 42.3085 -70.7184 172° South  Level FlightAware Approximate
Sat 08:21:24 42.2767 -70.7058 139° Southeast 323 599 10.400  Level Boston Center
Sat 08:22:00 42.2626 -70.7728 228° Southwest  Level FlightAware Approximate
Sat 08:22:24 42.2125 -70.7303 196° South 220 407 12.900  Level Boston Center
Sat 08:23:24 42.1806 -70.8264 246° West 194 359 15.300 2.450 Climbing Boston Center
Sat 08:24:24 42.1653 -70.9358 259° West 239 443 17.800 2.200 Climbing Boston Center
Sat 08:25:24 42.1544 -71.0539 263° West 278 515 19.700 1.950 Climbing Boston Center
Sat 08:26:24 42.1392 -71.1744 260° West 316 586 21.700 1.950 Climbing Boston Center
Sat 08:27:24 42.1236 -71.2953 260° West 329 610 23.600 1.700 Climbing Boston Center
Sat 08:28:24 42.0872 -71.3994 245° Southwest 329 610 25.100 1.300 Climbing Boston Center
Sat 08:29:24 42.0464 -71.5119 244° Southwest 329 610 26.200 1.500 Climbing Boston Center
Sat 08:30:36 41.9975 -71.6356 242° Southwest 343 636 28.400 1.682 Climbing Boston Center
Sat 08:31:36 41.9503 -71.7675 244° Southwest 338 626 29.900 800 Climbing Boston Center
Sat 08:32:36 41.9072 -71.8878 244° Southwest 338 626 30.000 50 Climbing Boston Center
Sat 08:33:36 41.8639 -72.0081 244° Southwest 350 649 30.000  Level Boston Center
Sat 08:34:36 41.8206 -72.1308 245° Southwest 360 666 30.000  Level Boston Center
Sat 08:35:36 41.7772 -72.2508 244° Southwest 360 666 30.000  Level Boston Center
Sat 08:36:36 41.7314 -72.3678 242° Southwest 360 666 30.000  Level Boston Center
Sat 08:37:36 41.6897 -72.4872 245° Southwest 360 666 30.000  Level Boston Center
Sat 08:38:36 41.6436 -72.6067 243° Southwest 360 666 30.000  Level Boston Center
Sat 08:39:36 41.6019 -72.7233 245° Southwest 360 666 30.000  Level Boston Center
Sat 08:40:36 41.5578 -72.8422 244° Southwest 360 666 30.000  Level Boston Center
Sat 08:41:36 41.5178 -72.9558 245° Southwest 355 658 30.000  Level Boston Center
Sat 08:42:36 41.4733 -73.0744 243° Southwest 355 658 30.000  Level Boston Center
Sat 08:43:36 41.4308 -73.1903 244° Southwest 355 658 30.000  Level Boston Center
Sat 08:44:36 41.3864 -73.3089 243° Southwest 360 666 30.000  Level Boston Center
Sat 08:46:59 41.2844 -73.5736 243° Southwest 354 655 30.000  Level New York Center
Sat 08:47:59 41.2300 -73.6761 235° Southwest 359 665 30.000  Level New York Center
Sat 08:48:58 41.1692 -73.7728 230° Southwest 354 655 30.000  Level New York Center
Sat 08:49:58 41.1106 -73.8692 231° Southwest 354 655 30.000 -50 Level New York Center
Sat 08:50:59 41.0536 -73.9711 233° Southwest 349 647 29.900  Descending New York Center
Sat 08:51:57 40.9925 -74.0700 231° Southwest 349 647 30.000 -450 Climbing New York Center
Sat 08:52:59 40.9269 -74.1794 232° Southwest 349 647 29.000 -1.140 Descending New York Center
Sat 08:53:58 40.8725 -74.2644 230° Southwest 349 647 27.700 -1.361 Descending New York Center
Sat 08:54:58 40.8156 -74.3575 231° Southwest 344 637 26.300 -1.450 Descending New York Center
Sat 08:55:58 40.7628 -74.4450 231° Southwest 332 615 24.800 -1.190 Descending New York Center
Sat 08:56:59 40.7100 -74.5300 231° Southwest 319 591 23.900 -397 Descending New York Center
Sat 08:57:59 40.6572 -74.6200 232° Southwest 313 579 24.000 -149 Climbing New York Center
Sat 08:59:00 40.6044 -74.7072 231° Southwest 313 579 23.600 -595 Descending New York Center
Sat 09:00:00 40.5494 -74.7914 229° Southwest 313 579 22.800 -800 Descending New York Center
Sat 09:01:00 40.4906 -74.8697 225° Southwest 313 579 22.000 -763 Descending New York Center
Sat 09:01:58 40.4333 -74.9511 227° Southwest 313 579 21.300 -756 Descending New York Center
Sat 09:02:59 40.3783 -75.0347 229° Southwest 313 579 20.500 -793 Descending New York Center
Sat 09:03:59 40.3192 -75.1156 226° Southwest 308 570 19.700 -793 Descending New York Center
Sat 09:05:00 40.2597 -75.1961 226° Southwest 308 570 18.900 -793 Descending New York Center
Sat 09:06:00 40.1917 -75.2897 226° Southwest 308 570 18.100 -458 Descending New York Center
Sat 09:06:58 40.1408 -75.3622 227° Southwest 308 570 18.000 -51 Descending New York Center
Sat 09:07:58 40.0750 -75.4475 225° Southwest 308 570 18.000  Level New York Center
Sat 09:09:00 40.0242 -75.5200 228° Southwest 308 570 18.000  Level New York Center
Sat 09:09:57 39.9600 -75.6078 226° Southwest 303 562 18.000 -50 Level New York Center
Sat 09:10:59 39.9111 -75.6856 231° Southwest 308 570 17.900 -639 Descending New York Center
Sat 09:11:59 39.8589 -75.7847 236° Southwest 308 570 16.700 -1.400 Descending New York Center
Sat 09:12:59 39.8203 -75.8603 236° Southwest 292 541 15.100 -1.446 Descending New York Center
Sat 09:14:45 39.7333 -76.0167 234° Southwest 268 496 12.700 -1.084 Descending Potomac TRACON
Sat 09:15:45 39.7000 -76.0833 237° Southwest 225 417 12.100 -550 Descending Potomac TRACON
Sat 09:16:45 39.6667 -76.1500 237° Southwest 230 426 11.600 -1.350 Descending Potomac TRACON
Sat 09:17:45 39.6167 -76.2167 226° Southwest 250 463 9.400 -2.100 Descending Potomac TRACON
Sat 09:18:45 39.5667 -76.2667 218° Southwest 263 488 7.400 -1.526 Descending Potomac TRACON
Sat 09:19:39 39.5167 -76.3167 218° Southwest 256 475 6.500 -895 Descending Potomac TRACON
Sat 09:20:39 39.4500 -76.3833 218° Southwest 257 476 5.700 -750 Descending Potomac TRACON
Sat 09:21:39 39.4000 -76.4167 207° Southwest 273 505 5.000 -684 Descending Potomac TRACON
Sat 09:22:33 39.3167 -76.4333 189° South 274 507 4.400 -900 Descending Potomac TRACON
Sat 09:23:39 39.2500 -76.4500 191° South 265 491 3.200 -1.000 Descending Potomac TRACON
Sat 09:24:39 39.1833 -76.5000 210° Southwest 242 447 2.300 -600 Descending Potomac TRACON
Sat 09:25:39 39.1333 -76.5333 207° Southwest 203 377 2.000 -211 Descending Potomac TRACON
Sat 09:26:33 39.1000 -76.5833 229° Southwest 166 307 1.900 -417 Descending Potomac TRACON
Sat 09:27:34 39.1167 -76.6167 303° West 146 270 1.200 -730 Descending Potomac TRACON
Sat 09:28:28 39.1500 -76.6500 322° Northwest 136 253 500 -778 Descending Potomac TRACON
Sat 09:30:00 39.1667 -76.6667 270° West  Level FlightAware Approximate
Sat 09:37:00 39.1754 -76.6683 270° West  Level Estimated

Login

Don't have an account? Register now (free) for customized features, flight alerts, and more!